Location: Lombard
(41.8800°N, 88.0080°W)
Time: 00:37:51
(UTC-05:00)

Tiros 1 - Pass Details

Date: 04 February 2023
Orbit: 628 x 662 km, 48.4° (Epoch: 20 March)

Event Time Altitude Azimuth Distance (km) Brightness Sun altitude
Rises 04:55:19 0° 297° (WNW) 2,932 - -23.8°
Reaches altitude 10° 04:57:38 10° 299° (WNW) 2,027 - -23.4°
Exits shadow 05:01:34 61° 317° (NW) 726 7.1 -22.6°
Maximum altitude 05:02:19 79° 26° (NNE) 658 7.1 -22.5°
Drops below altitude 10° 05:07:02 10° 114° (ESE) 2,043 10.7 -21.6°
Sets 05:09:23 0° 115° (ESE) 2,957 11.7 -21.2°
